GFSNIL_con_lsi_132.txt.gz
Lid_Strength_Index
6 5 5 5 4 4 4 4 4 4 4 4 4 4 4 4 3 4 4 4 4 3
5 5 5 5 5 5 5 4 5 5 5 5 6 6 6 6 6 6 5 6 6 6
5 5 5 5 5 6 6 6 6 6 6 6 6 6 6 7 6 7 7 7 7 7
5 5 5 6 6 6 6 7 7 7 7 7 7 7 7 7 7 7 7 7 7 7
6 6 7 7 6 6 6 7 7 7 7 7 7 7 8 8 8 8 8 8 8 8
7 7 7 7 6 6 6 7 7 7 7 7 7 7 6 7 7 7 7 7 7 6
8 7 7 7 7 7 7 7 7 6 6 6 6 6 6 6 6 7 6 6 6 6
8 7 7 7 7 7 7 7 7 7 6 6 6 6 6 6 6 6 6 6 6 6
8 7 8 8 7 7 8 8 7 7 7 7 6 7 7 6 6 6 7 7 6 5
8 8 8 7 8 8 8 8 8 7 7 7 6 7 8 7 6 6 6 5 5 5
9 8 7 8 8 8 8 7 7 7 6 6 6 8 8 8 6 5 4 5 5 5
9 7 8 9 9 8 7 6 6 6 7 7 6 8 8 7 5 5 5 5 4 4
8 8 9 10 9 7 6 6 6 6 6 6 5 6 7 7 6 6 5 5 4 5
9 9 10 9 8 7 7 7 7 7 7 5 6 6 8 9 8 7 7 6 5 4

GFSNIL_con_lsi_135.txt.gz
Lid_Strength_Index
2 2 3 2 2 2 2 3 2 2 2 2 2 2 2 2 3 2 2 3 3 2
3 3 3 2 3 4 3 4 4 4 5 4 4 4 4 5 4 4 3 3 3 4
3 3 3 3 3 3 3 3 3 4 4 5 5 5 5 5 4 5 5 4 4 4
4 3 3 3 3 3 3 4 4 4 4 4 4 4 5 6 6 5 5 4 5 5
3 3 3 3 3 3 3 4 4 3 3 3 4 3 4 5 5 5 5 5 4 5
4 4 4 4 3 3 3 3 3 4 4 4 3 3 3 3 4 4 4 3 3 3
4 4 4 4 4 4 4 4 4 3 3 3 3 3 3 3 3 3 3 2 2 2
5 5 4 4 4 4 4 4 3 3 3 2 3 3 3 3 3 2 2 2 2 2
6 5 5 4 4 4 3 3 3 3 3 3 3 6 6 5 3 3 3 3 3 2
6 6 5 5 4 4 3 3 3 3 2 2 2 6 7 7 4 3 3 2 2 2
6 6 5 5 5 4 3 3 3 3 2 3 4 7 8 8 3 3 2 2 2 2
6 6 6 5 5 4 3 3 3 2 3 4 5 8 9 7 4 3 3 2 2 2
8 7 6 6 5 4 4 4 4 4 5 6 6 8 9 9 7 6 5 4 2 4
7 7 6 6 5 5 5 4 4 5 6 6 7 7 9 10 8 8 6 5 3 1

GFSNIL_con_lsi_138.txt.gz
Lid_Strength_Index
-0 0 0 0 0 1 1 1 0 1 1 1 1 2 1 1 1 0 0 0 0 1
-0 -0 1 0 1 2 1 2 1 1 1 1 1 2 2 3 2 2 2 1 1 2
1 1 1 1 2 1 1 1 1 1 1 1 1 0 0 2 1 2 3 3 3 3
2 2 2 2 1 1 1 1 1 1 1 1 1 1 0 0 1 2 1 2 2 3
2 2 2 2 1 1 1 1 1 1 1 1 1 1 1 2 1 1 1 1 1 2
2 1 1 1 2 2 2 2 2 1 1 1 1 1 1 1 1 1 1 1 1 1
2 2 2 2 2 2 2 2 1 1 1 0 1 0 1 1 1 1 1 0 1 1
2 2 3 3 2 2 1 1 1 1 0 0 0 2 2 1 1 1 1 0 1 1
4 4 3 3 2 2 1 1 0 0 1 1 1 6 6 5 2 1 2 2 1 1
4 4 3 3 3 2 1 1 1 1 1 2 3 8 8 8 3 2 2 2 1 1
4 4 4 3 3 2 1 1 1 2 2 2 4 8 9 9 2 1 1 1 1 1
5 5 5 4 3 2 2 2 2 2 2 3 5 9 10 8 4 3 2 1 1 1
5 5 5 3 3 2 2 2 2 2 2 5 6 9 10 9 6 5 4 1 1 6
5 5 4 3 3 3 2 2 2 3 3 5 7 7 9 10 8 7 5 2 1 1

GFSNIL_con_lsi_141.txt.gz
Lid_Strength_Index
0 1 1 0 0 0 0 1 -0 0 -0 0 -0 -0 -0 0 -0 -1 0 0 1 1
0 0 0 -0 -1 1 0 1 0 0 -0 -1 -0 -1 -1 -0 -0 -1 -0 -0 -0 0
0 -0 -0 0 1 1 1 0 0 0 -0 -0 -1 -1 -1 -0 -1 -0 0 0 -0 0
1 1 1 1 1 1 1 1 1 0 0 0 0 -0 -1 -0 -0 0 -0 -0 0 0
1 1 1 1 1 0 0 -0 0 1 1 1 1 -0 -0 0 0 0 0 0 0 0
1 1 1 1 1 1 0 1 1 1 1 0 0 -0 -0 -0 0 0 0 0 0 1
2 2 2 2 1 1 1 1 1 0 0 0 -0 -0 1 1 1 1 0 0 0 1
2 2 2 2 1 1 1 1 0 0 0 0 0 3 3 3 2 1 1 1 0 0
3 3 2 2 2 1 1 0 1 1 1 1 2 7 8 7 4 1 2 2 2 1
3 3 3 2 2 1 1 1 1 1 1 2 3 8 9 8 4 1 2 1 1 1
3 4 3 2 2 2 2 1 1 1 2 2 5 8 9 9 2 2 1 1 1 1
4 4 4 4 3 2 2 1 1 1 2 2 3 8 9 8 2 3 2 1 2 2
5 4 4 4 3 2 2 2 2 2 2 5 5 8 9 9 5 4 3 0 3 6
4 4 4 3 3 3 3 2 2 3 2 3 5 5 10 10 6 6 4 2 2 2

GFSNIL_con_lsi_144.txt.gz
Lid_Strength_Index
1 1 1 2 1 1 1 1 -0 -0 -0 -0 -0 -0 -0 0 0 0 1 1 1 1
2 2 1 1 1 1 0 1 0 -0 -0 -0 -0 -0 -0 0 1 0 0 1 1 1
2 1 1 1 1 1 0 0 0 -0 -0 -0 -0 -0 -0 0 0 1 1 1 1 1
1 1 0 1 1 1 0 -0 0 0 0 -0 -0 -0 0 0 0 1 1 1 1 1
1 1 1 1 1 -0 0 0 0 0 0 0 0 -0 1 1 1 1 1 1 1 1
2 2 1 1 0 0 0 1 1 0 0 1 1 2 1 2 1 1 1 1 1 1
2 1 1 1 0 1 1 1 1 0 1 1 3 4 4 3 3 2 2 1 1 1
2 2 1 1 1 1 1 1 1 1 1 1 4 6 7 6 4 3 2 1 1 2
2 2 2 1 1 1 1 1 1 1 2 2 5 8 7 7 6 3 2 2 2 1
3 3 3 2 2 2 2 1 1 2 2 3 5 8 8 7 5 3 2 2 2 1
4 4 3 3 3 2 2 1 1 2 2 3 6 8 8 8 3 3 2 2 1 1
5 4 4 4 3 3 1 1 1 2 3 3 5 8 8 7 4 5 4 2 3 2
5 5 5 4 2 2 2 2 3 3 3 5 4 8 8 8 5 7 6 2 2 6
5 4 3 3 2 3 2 2 3 4 3 4 7 6 9 9 8 8 6 4 4 4

GFSNIL_con_lsi_147.txt.gz
Lid_Strength_Index
4 5 4 4 4 5 5 4 3 3 3 3 2 2 3 2 2 2 2 3 2 2
4 4 5 6 6 6 5 3 4 4 3 3 2 2 3 2 3 3 3 2 2 3
5 5 6 5 6 6 4 4 4 4 3 3 3 3 3 3 3 3 3 2 3 3
6 6 5 5 4 4 5 5 4 3 3 4 3 3 3 4 3 3 3 3 3 3
5 5 5 5 5 5 5 4 3 3 3 4 4 4 4 4 4 4 4 3 3 3
5 5 5 5 5 4 4 4 3 3 4 5 6 6 6 5 5 4 4 3 4 3
6 6 5 5 4 4 3 3 3 3 5 6 7 7 7 7 6 5 3 2 2 2
5 5 5 5 4 4 4 4 3 4 5 7 7 7 8 8 7 6 3 1 1 1
5 5 5 4 5 5 4 4 4 4 5 7 7 8 7 7 8 5 3 2 1 1
6 5 5 5 5 4 5 5 5 5 6 8 9 8 8 7 7 4 3 2 1 2
5 6 6 6 6 4 4 4 6 6 6 8 8 9 9 8 6 5 3 3 3 4
6 7 6 5 5 5 4 5 5 6 7 8 10 9 10 9 7 7 5 4 4 6
7 6 6 5 5 5 5 4 5 6 7 7 9 10 10 10 8 7 6 4 5 5
7 6 6 5 5 4 5 6 7 7 8 10 10 11 10 10 9 7 7 6 6 5